Location: Bas-Clignon
(44.2000°N, 6.6333°E)
Time: 03:27:44
(UTC+00:00)

PSLV R/B - Pass Details

Date: 03 February 2023
Orbit: 491 x 557 km, 97.8° (Epoch: 27 March)

Event Time Altitude Azimuth Distance (km) Brightness Sun altitude
Rises 17:39:29 0° 144° (SE) 2,562 7.0 -10.0°
Reaches altitude 10° 17:41:40 10° 135° (SE) 1,691 6.0 -10.4°
Maximum altitude 17:44:56 33° 70° (ENE) 861 4.3 -11.0°
Drops below altitude 10° 17:48:18 10° 6° (N) 1,729 6.2 -11.6°
Sets 17:50:32 0° 356° (N) 2,631 7.2 -12.0°
